Погода в Челаковице

Чехия     50°09′39″N   14°45′15″E
темп.,
°C
ветер,
м/с
пор.,
м/с
влажн.,
%
обл.,
%
осадки,
мм/ч
давл.,
гПа
погр.,
м
21 апреля, ср
ср2123:00+8сз11745 0.0 101410
02:00+6зюз22825 0.0 101511
05:00+6з22905 0.1 101525
08:00+8з23805 0.1 1015196
11:00+14з34625 0.1 1014854
14:00+16зсз354454 0.2 10132330
17:00+17сз4542100 0.0 10122407
20:00+10ссз34695 0.0 101347
22 апреля, чт
чт2223:00+7зсз227436 0.0 101521
02:00+6сз388559 0.0 1016196
05:00+5сз5972100 0.0 1018803
08:00+4сз5961100 0.2 1020755
11:00+7зсз685281 0.0 10201438
14:00+10зсз7104297 0.0 10202345
17:00+10сз8114890 0.0 10192512
20:00+7сз7126482 0.0 1022812
23 апреля, пт
пт2323:00+4зсз497761 0.0 1023290
02:00+2з49865 0.0 1024208
05:00+1з349330 0.0 102483
08:00+5зсз6865100 0.0 10251212
11:00+8зсз68525 0.0 10251526
14:00+11сз7104769 0.0 10251952
17:00+11ссз8105220 0.0 10241836
20:00+6сз48705 0.0 1026177
24 апреля, сб
сб2423:00+4зсз33775 0.0 102738
02:00+3зсз33825 0.0 102734
05:00+2зсз22885 0.0 102715
08:00+5з23765 0.0 1027227
11:00+10зсз345716 0.0 10261386
14:00+13зсз464647 0.0 10241926
17:00+12ссз6647100 0.0 10231871
20:00+7ссз486817 0.0 1024172
25 апреля, вс
вс2523:00+4ссз33828 0.0 102642
02:00+3сз22858 0.0 102729
05:00+1ссз33915 0.0 102750
08:00+4с34696 0.0 1028295
11:00+8с233630 0.0 10271178
14:00+11ссз12335 0.0 10251434
17:00+12юв11325 0.0 10231389
20:00+7юв335410 0.0 102223